TimeMDT,TemperatureF,Dew PointF,Humidity,Sea Level PressureIn,VisibilityMPH,Wind Direction,Wind SpeedMPH,Gust SpeedMPH,PrecipitationIn,Events,Conditions,WindDirDegrees,DateUTC
12:55 AM,38.3,23.5,55,30.16,10.0,NNE,6.9,-,N/A,,Clear,30,2012-10-27 06:55:00
1:55 AM,36.9,23.0,57,30.15,10.0,NNE,5.8,-,N/A,,Clear,20,2012-10-27 07:55:00
2:55 AM,34.5,22.1,61,30.15,10.0,NE,6.9,-,N/A,,Clear,40,2012-10-27 08:55:00
3:55 AM,34.2,22.5,62,30.14,10.0,NE,5.8,-,N/A,,Clear,50,2012-10-27 09:55:00
4:55 AM,33.4,21.6,62,30.15,10.0,NE,4.6,-,N/A,,Clear,50,2012-10-27 10:55:00
5:55 AM,34.2,22.1,61,30.17,10.0,SE,3.5,-,N/A,,Clear,140,2012-10-27 11:55:00
6:55 AM,38.1,24.4,58,30.17,10.0,Calm,Calm,-,N/A,,Clear,0,2012-10-27 12:55:00
7:55 AM,34.3,22.8,63,30.20,10.0,NE,5.8,-,N/A,,Clear,50,2012-10-27 13:55:00
8:55 AM,42.3,25.2,51,30.20,10.0,NNE,4.6,-,N/A,,Clear,20,2012-10-27 14:55:00
9:55 AM,47.3,25.5,43,30.19,10.0,North,4.6,-,N/A,,Clear,350,2012-10-27 15:55:00
10:55 AM,51.4,26.8,38,30.18,10.0,NW,6.9,-,N/A,,Clear,320,2012-10-27 16:55:00
11:55 AM,53.6,27.3,36,30.15,10.0,Variable,3.5,-,N/A,,Clear,0,2012-10-27 17:55:00
12:55 PM,56.7,29.1,35,30.09,10.0,Calm,Calm,-,N/A,,Clear,0,2012-10-27 18:55:00
1:55 PM,57.6,30.0,35,30.06,10.0,Calm,Calm,-,N/A,,Clear,0,2012-10-27 19:55:00
2:55 PM,59.4,28.9,31,30.03,10.0,Calm,Calm,-,N/A,,Clear,0,2012-10-27 20:55:00
3:55 PM,60.8,27.9,29,30.00,10.0,Calm,Calm,-,N/A,,Clear,0,2012-10-27 21:55:00
4:55 PM,63.1,27.1,26,29.99,10.0,NW,4.6,-,N/A,,Clear,310,2012-10-27 22:55:00
5:55 PM,60.8,27.9,29,29.98,10.0,WNW,3.5,-,N/A,,Clear,290,2012-10-27 23:55:00
6:55 PM,54.0,25.7,34,30.01,10.0,NNW,6.9,-,N/A,,Clear,330,2012-10-28 00:55:00
7:55 PM,50.0,24.4,37,30.04,10.0,North,5.8,-,N/A,,Clear,10,2012-10-28 01:55:00
8:55 PM,48.4,24.1,39,30.06,10.0,East,3.5,-,N/A,,Clear,100,2012-10-28 02:55:00
9:55 PM,46.9,23.4,40,30.07,10.0,ENE,6.9,-,N/A,,Clear,70,2012-10-28 03:55:00
10:55 PM,42.6,22.3,45,30.08,10.0,ENE,8.1,-,N/A,,Clear,70,2012-10-28 04:55:00
11:55 PM,42.8,23.0,46,30.07,10.0,East,4.6,-,N/A,,Clear,80,2012-10-28 05:55:00